Simultaneous Nadir Overpasses (SNOs) Predictions

Prediction of SNOs between LANDSAT-8 and METOP-B Satellite Orbit:

Table of predicted SNOs for the next 14.0 days since TLE Epoch: 6/4/2022
Index Date (LANDSAT-8) Time (LANDSAT-8) Lat,Lon (LANDSAT-8) SZA (LANDSAT-8 ) Date (METOP-B) Time (METOP-B) Lat,Lon (METOP-B) SZA (METOP-B ) Distance(km) Time Diff (sec)
1 06/04/2022 04:32:13 81.14, 152.21 60.95 06/04/2022 04:31:15 81.14, 152.24 60.94 0.84 58
2 06/04/2022 05:21:38 -81.18, -39.50 118.96 06/04/2022 05:21:53 -81.18, -39.35 118.93 2.66 15
3 06/07/2022 00:06:29 81.15,-141.15 60.67 06/07/2022 00:05:37 81.15,-141.25 60.64 1.77 52
4 06/07/2022 00:55:55 -81.17, 26.80 119.29 06/07/2022 00:56:16 -81.17, 26.83 119.27 0.50 21
5 06/09/2022 19:40:46 81.16, -74.58 60.43 06/09/2022 19:39:59 81.16, -74.39 60.43 3.19 47
6 06/09/2022 20:30:12 -81.18, 93.40 119.52 06/09/2022 20:30:39 -81.17, 93.35 119.52 1.05 27
7 06/12/2022 15:15:03 81.16, -8.08 60.23 06/12/2022 15:14:22 81.16, -7.95 60.23 2.24 41
8 06/12/2022 16:04:30 -81.16, 159.56 119.77 06/12/2022 16:05:03 -81.16, 159.45 119.77 1.77 33
9 06/15/2022 10:49:19 81.16, 58.35 60.08 06/15/2022 10:48:44 81.16, 58.46 60.07 1.96 35



Historial Predications of SNOs between LANDSAT-8 and METOP-B
